Location: Round Knob
(37.2473°N, 88.7376°W)
Time: 14:26:48
(UTC+00:00)

Cosmos 1244 Rocket - Pass Details

Date: 29 October 2020
Orbit: 954 x 997 km, 82.9° (Epoch: 03 December)

Event Time Altitude Azimuth Distance (km) Brightness Sun altitude
Rises 23:36:10 0° 356° (N) 3,663 7.4 -7.9°
Reaches altitude 10° 23:38:41 10° 359° (N) 2,718 6.7 -8.3°
Maximum altitude 23:44:54 69° 82° (E) 1,044 4.5 -9.6°
Drops below altitude 10° 23:51:08 10° 165° (SSE) 2,731 6.8 -10.8°
Sets 23:53:40 0° 168° (SSE) 3,681 7.5 -11.3°
